Location: Bas-Clignon
(44.2000°N, 6.6333°E)
Time: 12:50:57
(UTC+00:00)

Meteor 2-12 Rocket - Pass Details

Date: 03 February 2023
Orbit: 935 x 958 km, 82.5° (Epoch: 19 March)

Event Time Altitude Azimuth Distance (km) Brightness Sun altitude
Rises 18:18:19 0° 350° (N) 3,619 7.5 -16.9°
Reaches altitude 10° 18:20:49 10° 350° (N) 2,667 6.8 -17.3°
Maximum altitude 18:26:54 82° 264° (W) 952 4.5 -18.4°
Drops below altitude 10° 18:32:56 10° 177° (S) 2,638 6.8 -19.5°
Sets 18:35:24 0° 177° (S) 3,577 7.5 -19.9°
